Amateur Radio Satellites - All Passes

Search period start: 21 May 2013 19:56
Search period end: 22 May 2013 19:56
Location: Bridgewater, 44.3670°N, 64.5170°W

Satellite Date Start Highest point End Downlink Frequencies (MHz)
Time Altitude Azimuth
JAS-2 21 May 19:58:30 20:02:11 14° 49° (NE) 20:05:51 435.800 - 435.900 CW/SSB, 435.910 FM
STRAND 1 21 May 20:21:18 20:26:19 55° 289° (WNW) 20:31:20 ?
UOSAT-12 21 May 20:32:40 20:37:07 46° 49° (NE) 20:41:33 437.025 FM, 437.400 FM
HO-68 21 May 20:39:35 20:45:47 34° 60° (ENE) 20:51:59 435.675 MHz FM
JAS-1B 21 May 21:06:35 21:15:24 46° 262° (W) 21:23:04 435.800 - 435.900 CW/SSB
OPAL 21 May 21:11:59 21:15:05 16° 56° (ENE) 21:18:10 ?
SO-67 21 May 21:21:36 21:23:30 14° 269° (W) 21:25:24 435.3500 MHz FM
RS-15 21 May 21:28:57 21:38:26 27° 349° (N) 21:47:37 29.354 - 29.394 USB, Beacon 29.352 USB
JAS-2 21 May 21:38:06 21:45:36 57° 68° (ENE) 21:53:13 435.800 - 435.900 CW/SSB, 435.910 FM
Oscar 11 21 May 21:46:39 21:50:42 41° 71° (ENE) 21:54:47 145.825 FM, Beacon 2401.500 USB
UOSAT-12 21 May 22:13:23 22:17:03 24° 247° (WSW) 22:20:42 437.025 FM, 437.400 FM
HO-68 21 May 22:26:14 22:33:11 54° 259° (W) 22:40:10 435.675 MHz FM
OPAL 21 May 22:48:09 22:53:21 80° 254° (WSW) 22:58:33 ?
KITSAT 1 21 May 22:52:55 22:59:41 31° 107° (ESE) 23:06:28 435.175 FM
JAS-2 21 May 23:23:58 23:30:51 35° 267° (W) 23:37:53 435.800 - 435.900 CW/SSB, 435.910 FM
Oscar 11 21 May 23:24:01 23:27:07 19° 268° (W) 23:30:15 145.825 FM, Beacon 2401.500 USB
RS-15 21 May 23:45:25 23:55:24 33° 25° (NNE) 00:05:01 29.354 - 29.394 USB, Beacon 29.352 USB
OPAL 22 May 00:32:38 00:33:01 10° 271° (W) 00:33:23 ?
KITSAT 1 22 May 00:46:29 00:54:30 67° 307° (NW) 01:02:37 435.175 FM
MaSat-1 22 May 01:56:35 02:02:53 36° 109° (ESE) 02:08:16 437.345 MHz
RS-15 22 May 01:58:30 02:09:45 81° 54° (NE) 02:20:39 29.354 - 29.394 USB, Beacon 29.352 USB
Uribyol 2 22 May 02:09:02 02:12:18 17° 90° (E) 02:15:33 436.500 FM
Oscar 19 22 May 02:13:54 02:17:46 21° 92° (E) 02:21:35 437.125 CW, 437.150 USB
KITSAT 1 22 May 02:45:24 02:51:35 23° 332° (NNW) 02:57:48 435.175 FM
Oscar 16 22 May 02:52:15 02:57:20 54° 100° (E) 03:02:22 437.025 USB, Beacon 2401.1428
AO-27 22 May 02:58:56 03:03:57 45° 99° (E) 03:08:57 436.795 MHz FM
Oscar 10/S400 22 May 03:00:41 05:13:52 15° 77° (ENE) 06:41:35 145.825 - 145.975 CW/USB, Beacon 145.810 USB
ITAMSAT 1 22 May 03:05:47 03:10:54 51° 100° (E) 03:15:58 435.822 SSB
ISS 22 May 03:34:07 03:37:09 34° 140° (SE) 03:40:13 145.800 FM
MaSat-1 22 May 03:38:22 03:45:01 48° 302° (WNW) 03:50:28 437.345 MHz
Uribyol 2 22 May 03:47:04 03:52:17 67° 288° (WNW) 03:57:28 436.500 FM
AO-40 22 May 03:52:04 05:07:00 21° 244° (WSW) 07:35:19 Beacon 2401.320
Oscar 19 22 May 03:52:24 03:57:26 52° 289° (WNW) 04:02:25 437.125 CW, 437.150 USB
Uosat F 22 May 03:55:57 03:59:56 23° 94° (E) 04:03:53 435.120 FM
AO-Echo 22 May 04:03:22 04:08:04 62° 101° (ESE) 04:12:51 ?
RS-15 22 May 04:12:03 04:20:51 29° 257° (WSW) 04:29:33 29.354 - 29.394 USB, Beacon 29.352 USB
Oscar 16 22 May 04:32:26 04:36:20 22° 298° (WNW) 04:40:12 437.025 USB, Beacon 2401.1428
TMSAT-1 22 May 04:36:30 04:41:13 31° 95° (E) 04:45:54 436.925 FM
AO-27 22 May 04:38:59 04:43:14 26° 297° (WNW) 04:47:29 436.795 MHz FM
ITAMSAT 1 22 May 04:46:01 04:50:04 23° 298° (WNW) 04:54:07 435.822 SSB
KITSAT 1 22 May 04:46:08 04:50:35 15° 2° (N) 04:55:03 435.175 FM
Gurwin Techsat 1B 22 May 04:57:24 05:02:44 71° 102° (ESE) 05:08:02 435.225 FM
ISS 22 May 05:10:38 05:13:50 42° 338° (NNW) 05:17:02 145.800 FM
AO-7 22 May 05:14:49 05:21:42 27° 93° (E) 05:28:31 29.400 - 29.500 MHz
MaSat-1 22 May 05:26:35 05:28:13 11° 320° (NW) 05:29:47 437.345 MHz
Uribyol 2 22 May 05:29:54 05:30:48 10° 306° (NW) 05:31:42 436.500 FM
Uosat F 22 May 05:34:10 05:38:57 45° 291° (WNW) 05:43:43 435.120 FM
AO-Echo 22 May 05:43:27 05:46:26 17° 299° (WNW) 05:49:26 ?
STRAND 1 22 May 06:00:31 06:05:04 34° 66° (ENE) 06:09:38 ?
TMSAT-1 22 May 06:16:20 06:21:10 37° 293° (WNW) 06:25:59 436.925 FM
Saudisat 1A 22 May 06:21:07 06:25:28 46° 119° (ESE) 06:29:53 436.775 MHz
Gurwin Techsat 1B 22 May 06:38:40 06:42:09 18° 300° (WNW) 06:45:37 435.225 FM
KITSAT 1 22 May 06:42:44 06:49:23 27° 32° (NNE) 06:56:01 435.175 FM
ISS 22 May 06:48:23 06:51:08 23° 358° (N) 06:53:52 145.800 FM
AO-7 22 May 07:06:49 07:15:08 71° 293° (WNW) 07:23:26 29.400 - 29.500 MHz
PCSat 22 May 07:23:11 07:27:31 25° 108° (ESE) 07:31:54 145.825 MHz
Hamsat 22 May 07:37:08 07:40:40 24° 94° (E) 07:44:12 145.90 MHz
STRAND 1 22 May 07:39:44 07:44:15 32° 264° (W) 07:48:49 ?
Sapphire 22 May 07:55:10 08:00:15 44° 113° (ESE) 08:05:23 437.095 MHz 1200 baud AX-25 AFSK
Saudisat 1A 22 May 08:01:26 08:05:22 27° 318° (NW) 08:09:21 436.775 MHz
ISS 22 May 08:25:24 08:28:30 34° 18° (NNE) 08:31:36 145.800 FM
KITSAT 1 22 May 08:37:55 08:46:06 81° 56° (ENE) 08:54:14 435.175 FM
SO-67 22 May 08:44:58 08:48:23 41° 98° (E) 08:51:47 435.3500 MHz FM
JAS-1B 22 May 08:51:08 08:57:06 50° 99° (E) 09:02:34 435.800 - 435.900 CW/SSB
AO-7 22 May 09:01:13 09:06:32 19° 314° (NW) 09:11:51 29.400 - 29.500 MHz
PCSat 22 May 09:05:21 09:10:37 52° 307° (NW) 09:15:57 145.825 MHz
Hamsat 22 May 09:12:52 09:16:48 34° 290° (WNW) 09:20:45 145.90 MHz
SO-50 22 May 09:20:20 09:24:57 49° 119° (ESE) 09:29:31 436.795 FM
Sapphire 22 May 09:38:59 09:43:50 32° 313° (NW) 09:48:42 437.095 MHz 1200 baud AX-25 AFSK
HO-68 22 May 09:52:25 09:58:23 28° 94° (E) 10:04:18 435.675 MHz FM
ISS 22 May 10:02:03 10:05:21 53° 216° (SW) 10:08:38 145.800 FM
SO-67 22 May 10:19:34 10:21:31 14° 295° (WNW) 10:23:28 435.3500 MHz FM
JAS-2 22 May 10:32:14 10:38:47 41° 95° (E) 10:44:34 435.800 - 435.900 CW/SSB, 435.910 FM
KITSAT 1 22 May 10:34:31 10:40:37 24° 256° (WSW) 10:46:43 435.175 FM
MaSat-1 22 May 10:41:39 10:43:05 12° 41° (NE) 10:44:24 437.345 MHz
JAS-1B 22 May 10:42:28 10:47:25 26° 301° (WNW) 10:52:02 435.800 - 435.900 CW/SSB
PCSat 22 May 10:52:56 10:55:23 13° 329° (NNW) 10:57:49 145.825 MHz
OPAL 22 May 10:57:23 11:01:18 23° 95° (E) 11:05:10 ?
SO-50 22 May 11:01:43 11:05:48 27° 318° (NW) 11:09:50 436.795 FM
Oscar 11 22 May 11:08:48 11:13:11 68° 102° (ESE) 11:17:32 145.825 FM, Beacon 2401.500 USB
HO-68 22 May 11:39:28 11:46:30 62° 292° (WNW) 11:53:32 435.675 MHz FM
Oscar 10/S400 22 May 11:44:07 13:08:10 14° 281° (W) 15:15:50 145.825 - 145.975 CW/USB, Beacon 145.810 USB
JAS-2 22 May 12:17:20 12:23:46 39° 297° (WNW) 12:29:32 435.800 - 435.900 CW/SSB, 435.910 FM
MaSat-1 22 May 12:22:24 12:25:42 46° 248° (WSW) 12:28:24 437.345 MHz
UOSAT-12 22 May 12:25:23 12:29:52 71° 122° (ESE) 12:34:25 437.025 FM, 437.400 FM
Oscar 16 22 May 12:34:52 12:37:26 14° 57° (ENE) 12:40:01 437.025 USB, Beacon 2401.1428
OPAL 22 May 12:35:38 12:40:26 47° 293° (WNW) 12:45:10 ?
AO-27 22 May 12:43:16 12:45:17 12° 56° (NE) 12:47:18 436.795 MHz FM
Oscar 11 22 May 12:46:42 12:48:52 14° 299° (WNW) 12:51:02 145.825 FM, Beacon 2401.500 USB
ITAMSAT 1 22 May 12:49:30 12:51:59 14° 57° (ENE) 12:54:29 435.822 SSB
Saudisat 1A 22 May 13:08:33 13:10:48 13° 30° (NNE) 13:13:02 436.775 MHz
Uribyol 2 22 May 13:28:15 13:32:42 30° 65° (ENE) 13:37:11 436.500 FM
HO-68 22 May 13:29:27 13:32:49 14° 313° (NW) 13:36:11 435.675 MHz FM
Oscar 19 22 May 13:32:11 13:36:53 36° 67° (ENE) 13:41:37 437.125 CW, 437.150 USB
AO-Echo 22 May 13:42:50 13:44:52 13° 59° (ENE) 13:46:53 ?
UOSAT-12 22 May 14:07:09 14:10:31 20° 322° (NW) 14:13:56 437.025 FM, 437.400 FM
Oscar 16 22 May 14:10:51 14:16:03 90° 74° (ENE) 14:21:18 437.025 USB, Beacon 2401.1428
AO-27 22 May 14:18:48 14:23:58 80° 74° (ENE) 14:29:11 436.795 MHz FM
ITAMSAT 1 22 May 14:25:34 14:30:44 89° 75° (ENE) 14:35:58 435.822 SSB
AO-7 22 May 14:29:58 14:32:28 12° 37° (NE) 14:34:58 29.400 - 29.500 MHz
Gurwin Techsat 1B 22 May 14:42:32 14:46:10 19° 60° (ENE) 14:49:49 435.225 FM
Saudisat 1A 22 May 14:46:56 14:51:28 60° 52° (NE) 14:55:54 436.775 MHz
Sapphire 22 May 14:59:27 15:01:54 13° 31° (NNE) 15:04:19 437.095 MHz 1200 baud AX-25 AFSK
Uribyol 2 22 May 15:07:17 15:12:04 38° 263° (W) 15:16:55 436.500 FM
Uosat F 22 May 15:10:48 15:15:23 38° 68° (ENE) 15:20:00 435.120 FM
Oscar 19 22 May 15:11:41 15:16:16 31° 265° (W) 15:20:53 437.125 CW, 437.150 USB
AO-Echo 22 May 15:18:09 15:23:01 86° 256° (WSW) 15:27:48 ?
Oscar 16 22 May 15:54:21 15:56:08 12° 273° (W) 15:57:56 437.025 USB, Beacon 2401.1428
TMSAT-1 22 May 15:58:51 16:04:00 56° 71° (ENE) 16:09:12 436.925 FM
AO-27 22 May 16:01:40 16:04:08 13° 272° (W) 16:06:36 436.795 MHz FM
PCSat 22 May 16:08:33 16:13:26 32° 47° (NE) 16:18:17 145.825 MHz
ITAMSAT 1 22 May 16:09:10 16:10:58 12° 273° (W) 16:12:46 435.822 SSB
SO-50 22 May 16:11:34 16:14:03 14° 32° (NNE) 16:16:32 436.795 FM
AO-7 22 May 16:15:26 16:23:07 44° 60° (ENE) 16:30:50 29.400 - 29.500 MHz
Gurwin Techsat 1B 22 May 16:20:22 16:25:38 66° 258° (WSW) 16:30:56 435.225 FM
RS-15 22 May 16:23:08 16:34:12 45° 110° (ESE) 16:44:49 29.354 - 29.394 USB, Beacon 29.352 USB
Saudisat 1A 22 May 16:27:44 16:30:42 17° 250° (WSW) 16:33:37 436.775 MHz
Sapphire 22 May 16:41:20 16:46:39 52° 53° (NE) 16:51:56 437.095 MHz 1200 baud AX-25 AFSK
Uosat F 22 May 16:50:03 16:54:17 27° 265° (W) 16:58:33 435.120 FM
TMSAT-1 22 May 17:40:28 17:44:18 20° 269° (W) 17:48:10 436.925 FM
JAS-1B 22 May 17:50:38 17:54:35 14° 51° (NE) 17:58:17 435.800 - 435.900 CW/SSB
SO-50 22 May 17:51:00 17:55:34 68° 53° (NE) 18:00:02 436.795 FM
PCSat 22 May 17:51:52 17:57:01 44° 247° (WSW) 18:02:07 145.825 MHz
AO-7 22 May 18:07:58 18:15:51 47° 260° (W) 18:23:49 29.400 - 29.500 MHz
Sapphire 22 May 18:25:22 18:29:46 25° 252° (WSW) 18:34:08 437.095 MHz 1200 baud AX-25 AFSK
Hamsat 22 May 18:33:21 18:36:33 22° 66° (ENE) 18:39:48 145.90 MHz
RS-15 22 May 18:34:24 18:46:16 63° 313° (NW) 18:57:39 29.354 - 29.394 USB, Beacon 29.352 USB
UOSAT-12 22 May 19:14:19 19:17:28 18° 36° (NE) 19:20:37 437.025 FM, 437.400 FM
SO-67 22 May 19:23:01 19:25:44 21° 68° (ENE) 19:28:29 435.3500 MHz FM
SO-50 22 May 19:33:05 19:35:37 15° 251° (WSW) 19:38:08 436.795 FM
JAS-1B 22 May 19:34:59 19:43:53 59° 69° (ENE) 19:51:28 435.800 - 435.900 CW/SSB

Developed and maintained by Chris Peat, Heavens-Above GmbH. Please read the updated FAQ before sending e-mail. Imprint. DLR
